GFSWCAN_con_3kmhel_135.txt.gz
Helicity
37 49 61 66 77 92 80 80 77 78 77 78 66 54 61 59 102 151 117 36 42 167 206 262 220 202 197 162 186 133 129 120 144 146 126 117 136 96 25 100 91 74 57 65 71 49 -6 93 117 108 75 69 76 108
-5 37 48 54 62 69 79 84 88 77 74 68 60 60 86 124 76 124 146 119 60 -18 138 233 221 130 102 141 150 95 90 62 41 96 110 98 82 38 13 42 79 64 125 54 90 81 70 61 49 65 78 73 121 195
-14 -25 -23 24 55 61 62 66 73 65 70 68 68 80 69 57 49 127 215 169 140 -18 -34 -7 77 120 129 123 93 82 66 56 22 29 35 92 55 49 58 72 70 140 117 128 157 116 64 70 129 120 159 145 172 194
-2 -6 -9 -16 -21 -12 28 54 59 60 61 62 73 69 12 70 56 103 221 220 163 57 7 -11 30 23 64 71 56 49 17 48 68 108 103 153 100 51 32 21 84 90 68 137 94 84 102 79 140 177 201 198 180 166
-16 -14 -14 -9 -13 -14 -8 -13 2 61 65 66 65 69 79 61 47 94 203 189 146 122 58 -31 -27 -7 41 57 24 42 52 80 123 131 154 94 146 178 160 106 95 136 84 134 96 60 144 62 198 180 173 154 134 153
-2 -40 -34 -22 -20 -23 -21 -21 -12 -18 -12 62 65 62 67 71 49 180 176 109 118 106 24 -11 22 70 95 101 27 38 70 125 211 175 207 116 156 199 94 99 99 118 123 70 42 135 143 151 159 133 162 153 129 137
36 59 60 53 37 10 -21 -28 -12 -12 -20 -13 40 59 64 65 142 129 137 25 111 128 64 -27 20 17 45 111 123 94 104 139 175 206 135 162 127 130 118 75 28 78 83 117 195 265 187 146 117 129 190 142 139 132
18 20 16 24 55 65 51 35 14 9 5 -14 -14 -14 37 43 81 -6 77 15 108 222 69 38 51 23 50 90 87 145 125 127 127 136 118 96 128 167 83 52 110 138 164 170 177 135 98 177 145 168 175 180 187 196
12 4 22 38 39 27 36 43 30 16 -31 -25 -22 -24 70 80 43 12 -30 13 183 208 75 -7 -15 12 65 105 129 182 206 106 102 106 118 148 167 156 94 52 77 152 138 109 146 122 146 165 172 182 177 163 186 145
-8 -29 -58 -86 3 63 146 166 113 40 78 -4 60 111 70 60 -1 19 -34 12 143 87 67 48 76 34 96 204 144 124 138 140 111 133 175 155 128 96 76 33 49 113 115 177 179 137 137 156 167 140 126 129 134 110
22 41 163 158 176 202 153 30 27 169 290 284 90 19 25 98 109 46 -16 92 171 69 -22 34 86 76 93 172 193 145 92 68 97 99 121 93 71 75 105 152 126 118 101 78 111 178 147 157 132 119 112 109 120 125
188 165 123 59 186 182 188 286 278 322 298 164 194 267 259 114 94 51 -29 32 70 66 55 8 86 171 152 188 115 106 103 119 51 109 122 63 42 49 167 167 131 109 95 106 115 121 113 94 95 112 118 115 122 141
215 169 126 115 85 208 96 65 135 244 412 508 594 360 66 123 -4 -10 -28 74 -8 102 172 205 270 251 258 205 164 133 120 89 115 88 24 27 43 102 136 165 138 105 117 124 98 93 93 91 100 125 140 147 172 169
190 204 188 345 393 347 345 298 329 300 311 354 266 173 81 -24 -60 -66 -43 99 121 127 381 285 354 268 264 255 200 212 140 92 46 29 27 26 55 93 118 118 141 100 76 65 62 73 94 112 115 136 160 170 183 159
169 226 251 375 352 200 237 137 98 141 245 255 163 136 72 108 99 98 188 264 177 231 340 423 377 312 454 339 213 138 83 32 2 27 38 51 88 93 112 93 83 76 77 74 69 80 91 109 118 130 125 137 160 180
159 219 480 447 298 244 210 119 205 140 186 181 161 142 220 187 206 222 251 218 234 276 314 324 280 282 284 193 130 89 33 17 27 27 53 79 106 102 86 61 61 64 77 74 86 99 119 126 130 133 151 144 153 162
220 245 292 181 87 112 113 89 172 210 221 199 196 194 198 211 191 216 198 250 247 267 263 200 191 130 89 75 50 31 11 23 29 52 67 65 76 80 81 87 89 96 96 106 127 136 148 161 184 178 164 128 146 132
202 265 176 109 74 87 220 125 142 167 264 215 192 203 198 204 192 215 245 260 163 152 127 98 67 77 52 25 23 34 57 75 84 92 89 95 99 95 84 87 80 85 101 109 121 140 158 162 154 137 150 156 163 146
140 137 138 101 44 51 121 162 123 181 184 191 220 234 263 232 244 226 203 197 154 145 133 109 54 34 29 33 38 70 78 71 78 109 110 82 79 86 95 97 108 110 106 108 117 122 114 113 123 152 166 153 146 135
126 172 181 165 74 63 71 118 137 128 215 221 231 255 244 248 244 253 250 197 151 127 76 44 48 51 55 57 69 70 62 61 77 93 83 79 71 79 88 92 95 100 98 100 112 131 138 130 121 129 130 122 130 121
104 175 162 119 117 75 84 100 120 155 194 155 230 228 219 240 188 182 163 142 77 58 49 66 68 78 90 84 79 72 64 63 65 58 66 77 67 78 91 84 78 81 99 112 118 110 110 102 101 102 116 120 120 135
121 115 97 134 95 79 75 107 142 198 170 219 210 177 181 190 173 129 123 86 77 99 104 95 96 83 85 85 73 60 56 74 73 65 71 93 79 75 74 74 87 82 82 84 89 85 88 105 121 128 145 149 165 186
79 69 107 105 78 87 121 149 120 145 119 121 150 150 156 142 118 101 60 104 132 139 113 91 82 82 74 74 74 76 60 63 57 55 63 68 73 75 74 68 73 80 70 56 91 101 117 130 152 185 193 208 233 251
51 34 68 70 61 90 88 104 89 80 81 103 82 93 101 97 115 74 79 109 124 116 102 69 64 72 72 79 68 55 41 35 50 56 54 67 70 63 58 48 56 60 76 100 122 128 135 159 176 202 225 253 245 247
21 69 54 92 95 83 95 87 87 92 94 107 111 111 116 109 89 74 74 102 104 100 72 50 61 57 31 31 46 49 44 32 43 47 52 62 73 78 79 73 67 73 105 141 128 143 157 171 194 221 228 228 234 238
16 33 26 46 79 69 65 65 53 76 82 87 65 74 88 77 73 48 72 88 88 82 90 66 58 64 61 46 40 51 39 35 58 61 61 55 54 76 80 88 85 72 81 130 174 174 184 187 198 208 213 223 235 252
24 27 49 74 75 74 78 89 106 82 75 64 70 85 80 70 54 52 65 86 65 65 76 74 55 61 53 41 57 64 74 73 77 79 77 80 75 65 80 83 75 70 106 147 178 198 206 210 212 212 222 208 186 184
26 56 51 81 70 82 75 79 70 59 50 70 81 83 60 52 55 64 71 63 56 66 80 96 103 87 73 75 73 83 112 105 107 95 102 129 125 121 115 112 118 148 157 169 187 194 197 199 201 196 190 186 176 161
60 75 57 83 77 74 72 66 54 52 62 61 65 70 62 69 61 57 58 56 59 60 82 97 96 70 68 81 87 80 86 79 90 89 86 74 72 83 103 119 148 173 185 219 225 206 211 202 198 197 188 178 171 182
71 70 52 51 55 56 60 53 49 41 43 37 36 45 52 52 50 60 61 63 64 60 44 41 32 41 50 71 82 92 77 62 63 59 62 50 47 89 122 152 183 192 200 238 257 257 268 263 242 203 189 178 179 182
45 54 48 45 44 49 47 42 30 31 37 43 40 53 51 46 56 67 69 63 59 69 59 63 54 52 69 75 85 92 75 70 68 81 93 121 144 147 152 168 178 186 189 195 193 194 196 183 158 158 151 152 140 132
59 52 47 51 43 25 13 26 19 13 4 11 3 33 36 39 21 31 72 76 63 71 82 71 53 52 54 75 103 105 114 116 114 138 163 181 186 175 179 176 173 175 184 192 178 154 143 147 129 127 129 126 111 99
37 30 27 22 23 20 16 8 11 7 22 23 27 34 49 48 31 35 40 74 70 65 70 89 115 136 152 161 171 179 168 158 169 190 211 213 199 183 169 162 165 174 184 166 138 119 123 138 131 125 116 103 90 82

GFSWCAN_con_3kmhel_138.txt.gz
Helicity
42 44 50 72 66 75 93 91 79 81 89 72 63 76 85 61 65 131 136 97 46 80 155 209 139 175 209 177 149 98 164 198 200 163 159 168 149 103 130 119 118 120 93 98 81 59 19 131 160 71 35 45 35 73
24 35 59 68 84 91 107 101 98 87 78 87 90 78 75 83 81 97 182 191 142 37 85 148 242 222 141 106 130 137 156 194 141 151 140 139 144 128 97 114 96 111 196 96 124 44 83 86 63 22 34 40 47 93
28 38 46 57 75 90 100 122 130 118 94 82 94 82 73 66 72 79 190 253 189 41 -41 -35 -14 54 161 118 107 127 113 64 49 -46 -47 28 92 80 124 84 99 87 156 152 124 122 152 152 197 48 92 96 101 110
6 14 40 48 57 64 67 81 80 90 80 73 83 76 82 74 64 65 190 272 272 125 53 -5 21 -53 24 73 89 82 74 63 40 37 1 37 105 52 58 63 32 78 175 152 166 134 113 104 103 197 222 219 205 177
-17 -13 -11 -8 23 48 57 57 57 55 58 62 72 73 76 66 75 117 234 190 231 213 80 33 43 4 -26 26 67 146 169 140 39 6 65 46 18 98 190 82 90 200 231 229 112 37 111 50 154 228 224 192 180 169
-3 -4 -19 -22 -24 -26 -23 2 34 50 52 60 57 61 53 65 78 194 201 157 264 189 135 16 76 71 111 96 127 107 108 96 99 52 34 46 70 92 -4 28 74 149 183 163 97 128 137 110 158 173 178 147 130 157
-32 -28 -23 -16 -10 -12 -15 -16 -2 33 47 48 55 55 51 51 65 211 180 121 209 225 174 30 -68 -147 5 131 137 144 136 93 120 121 51 45 119 125 123 13 171 93 106 138 155 209 154 143 124 149 160 146 164 182
33 4 -26 -16 -4 -6 -6 -11 -16 -4 24 44 42 41 43 46 76 163 269 8 116 272 152 106 -41 -28 -5 85 98 122 116 134 105 119 109 138 159 155 26 116 161 171 187 165 173 174 121 183 178 194 179 202 196 192
67 51 39 24 10 -15 -13 -5 -13 -9 -4 31 40 36 86 111 134 154 122 118 132 125 152 78 38 -60 64 87 64 107 123 88 88 115 166 148 136 84 76 110 149 134 140 127 188 176 163 160 180 193 201 183 172 147
23 21 16 22 33 47 42 -6 -14 -11 -9 -2 98 164 119 107 50 193 184 122 135 59 71 17 32 63 65 55 41 68 77 84 63 56 101 60 68 231 239 173 138 109 72 192 214 153 135 146 156 190 163 153 161 152
30 23 28 36 21 -24 8 37 9 -20 8 174 199 172 123 125 177 142 123 -12 12 -13 74 83 63 46 48 76 95 60 55 80 -13 52 60 26 125 160 187 222 169 145 153 120 113 106 115 149 189 199 142 129 134 125
46 65 45 40 75 37 -0 14 -9 -4 51 115 184 163 204 130 113 89 84 -28 6 -0 13 166 142 86 57 62 110 133 76 49 13 98 75 79 112 101 122 210 214 202 165 127 96 101 130 136 131 128 121 117 110 120
236 82 85 48 89 108 -20 45 1 -5 96 224 269 203 104 126 56 -112 -59 -28 -11 -8 112 198 195 95 78 42 36 56 28 13 85 80 128 187 92 76 120 181 211 192 159 126 114 137 161 134 107 112 124 125 150 149
265 248 204 92 42 118 -11 118 17 288 193 73 30 -23 7 23 -48 -75 -121 -98 5 81 170 219 332 170 108 77 41 15 39 56 53 144 190 69 55 86 159 166 176 113 98 106 109 104 98 94 89 107 123 133 155 143
378 237 146 -45 35 146 64 14 -26 222 134 52 10 -25 -27 -17 5 27 5 91 109 114 238 263 285 180 163 82 54 72 46 27 59 87 60 24 68 116 140 112 106 88 68 49 36 51 60 75 90 107 114 143 154 170
290 350 338 86 -11 -90 -68 -79 29 69 -10 -9 -6 -6 -20 -9 28 7 26 127 187 195 300 256 197 144 133 126 102 99 140 72 30 18 19 45 78 91 110 93 63 43 43 47 50 56 67 78 98 112 132 124 136 166
276 495 294 133 95 36 -4 48 96 4 -57 -4 45 94 71 89 90 105 90 197 261 332 297 184 119 84 133 179 223 232 157 91 25 11 49 58 65 91 99 89 69 76 88 84 87 95 101 110 136 144 153 122 137 142
476 255 168 152 115 227 285 125 129 82 85 158 109 136 145 179 176 225 198 256 245 272 248 248 187 218 179 99 100 93 51 69 73 89 104 115 121 96 72 86 80 87 95 93 103 115 120 128 132 126 140 145 173 182
111 116 114 87 54 99 229 230 195 216 212 179 217 262 237 224 233 225 244 213 207 251 316 242 141 94 58 40 28 34 64 66 86 136 155 139 116 94 105 111 110 98 94 93 97 105 107 103 118 136 151 163 187 181
115 150 176 162 55 115 190 186 274 201 182 210 192 195 219 209 287 318 251 181 138 111 76 52 26 60 51 39 44 74 79 77 97 148 155 132 108 110 102 88 91 102 116 115 104 111 127 135 123 132 146 163 186 175
75 151 156 96 92 99 112 142 184 143 96 155 260 227 194 193 150 189 193 177 102 78 35 34 17 41 56 81 83 72 76 63 59 54 71 88 88 90 95 95 87 82 82 84 97 107 114 109 113 125 154 163 168 185
82 102 99 127 107 128 94 134 158 158 136 185 218 134 180 166 162 176 161 115 80 73 68 60 75 69 77 79 70 69 62 76 80 86 104 111 104 97 82 62 64 64 67 81 92 98 98 117 135 149 168 170 182 189
58 62 83 95 70 91 160 225 189 187 148 179 201 174 164 137 123 114 86 90 87 93 80 81 80 74 66 63 73 80 75 73 75 78 83 91 91 84 75 64 64 85 92 75 82 92 120 141 161 182 189 198 215 229
32 36 62 62 60 68 111 149 183 163 133 160 134 145 146 123 108 78 57 79 98 90 91 77 72 69 64 71 71 63 54 47 64 73 68 81 87 80 80 84 81 82 86 89 103 126 136 153 180 195 203 223 221 227
29 63 46 69 89 84 97 93 92 78 113 128 120 111 113 107 66 64 60 87 99 97 90 77 63 54 31 34 51 57 51 37 49 73 82 82 92 104 115 106 103 86 93 128 113 131 142 170 186 199 208 219 232 232
23 45 38 58 81 79 86 87 72 89 110 96 77 78 93 78 85 74 87 100 108 100 88 70 56 59 61 52 52 70 67 56 65 74 75 65 67 77 86 90 89 76 67 113 131 133 149 163 181 211 223 226 234 242
29 35 59 77 73 78 86 92 104 87 96 76 74 90 91 77 59 63 65 104 97 95 92 85 66 66 59 62 61 71 71 75 75 78 83 103 106 89 86 90 78 69 83 112 131 158 173 178 190 206 222 207 186 185
19 51 55 89 84 98 83 96 88 79 62 62 75 85 65 52 49 49 52 61 60 64 81 104 120 103 81 71 57 77 110 104 108 103 115 145 138 129 112 107 112 129 134 143 158 174 181 183 189 193 196 196 185 159
51 63 57 88 82 88 82 71 59 61 71 70 71 69 62 69 65 62 65 60 54 70 100 112 126 103 90 89 99 95 83 74 86 91 91 81 79 88 101 112 130 153 174 221 232 203 201 189 191 199 202 197 178 177
76 67 50 49 58 61 62 58 57 54 59 49 46 52 54 54 53 55 53 63 68 74 68 67 37 42 46 74 90 106 93 80 73 67 64 52 48 82 109 130 150 163 182 218 230 238 265 263 252 224 212 193 180 183
59 64 61 60 60 52 45 36 32 35 38 41 39 53 46 48 51 52 55 53 47 52 51 60 55 48 76 74 79 89 82 83 91 98 98 120 130 137 148 158 163 172 178 179 180 191 203 199 178 180 163 154 143 144
57 53 44 53 49 38 38 41 36 38 43 46 39 51 46 45 32 38 65 73 67 77 91 80 69 65 61 63 73 87 99 110 109 119 136 147 161 166 171 170 173 178 180 184 183 173 165 157 145 132 129 131 119 111
60 61 57 54 57 57 43 37 36 27 34 33 35 38 37 33 21 39 56 83 85 84 93 106 113 118 114 110 125 141 149 153 164 184 204 212 208 196 189 180 175 174 186 185 169 144 135 145 127 122 124 116 103 90

GFSWCAN_con_3kmhel_141.txt.gz
Helicity
29 21 16 42 62 61 157 61 29 2 -7 53 101 131 115 124 142 187 122 83 0 -32 77 104 137 121 156 147 130 83 131 156 167 127 112 92 67 73 119 132 106 101 122 151 150 181 37 104 111 77 81 37 11 12
39 33 26 19 18 36 20 34 54 70 62 54 54 88 92 75 40 56 134 100 125 72 134 124 103 134 118 86 160 131 147 121 119 136 116 99 112 117 89 110 69 109 113 133 146 136 94 107 102 101 109 44 -2 15
39 36 45 38 41 16 26 54 67 84 78 62 43 45 80 76 63 112 140 133 193 111 77 88 103 51 125 138 136 179 144 98 110 114 99 138 141 127 123 101 104 66 82 134 110 108 136 120 86 157 211 103 94 97
27 36 39 47 50 68 62 71 73 77 70 70 68 61 46 60 75 171 171 142 145 135 114 67 46 29 56 88 115 113 108 83 74 27 39 17 83 55 63 60 62 77 99 107 47 110 130 99 40 128 124 149 170 164
23 37 43 40 50 60 62 79 98 86 86 90 98 82 67 81 83 144 237 168 138 150 74 132 119 39 33 38 67 87 87 76 86 75 76 83 39 54 66 72 56 120 99 63 28 51 140 87 84 109 143 143 156 160
1 12 30 36 43 42 53 73 90 96 96 111 112 108 86 90 112 249 219 110 93 180 182 139 88 91 54 93 52 57 78 61 92 88 60 33 60 91 60 16 -9 80 92 100 39 133 133 83 71 106 142 167 151 133
-16 -19 -13 16 27 48 49 54 65 71 76 80 88 76 78 83 180 267 153 61 156 168 168 163 81 86 91 106 143 51 60 131 134 126 122 101 84 89 49 -94 28 43 66 104 185 210 119 116 84 118 143 156 130 130
0 -7 -5 -14 14 31 47 57 50 44 43 54 47 44 63 76 172 146 122 94 211 311 193 150 90 69 56 56 83 89 88 153 179 172 145 107 75 94 -53 22 52 42 150 192 162 171 131 97 154 183 182 168 148 138
-13 -11 4 9 17 6 2 21 42 43 47 29 26 35 86 128 133 105 88 57 269 188 164 165 146 24 34 62 34 48 52 98 127 121 146 98 116 -67 47 64 49 153 149 137 200 149 150 163 171 181 165 137 147 129
26 -9 -26 -10 12 6 12 -1 8 14 24 37 115 188 151 104 89 90 139 175 200 206 216 184 131 94 24 -7 36 66 56 98 95 68 103 132 -6 40 118 106 50 201 191 206 181 118 158 166 168 176 149 136 126 104
25 18 22 2 -18 0 5 4 7 32 70 163 180 213 108 65 192 62 69 172 216 205 140 142 131 124 81 93 73 30 30 38 36 57 73 -31 -16 32 129 87 185 220 196 156 95 103 123 136 187 192 131 124 105 90
13 -12 -18 -11 9 -9 -10 3 -6 114 151 121 210 180 140 155 132 137 108 130 124 126 59 71 124 140 68 64 48 37 47 36 -4 81 -19 -20 3 38 48 88 185 226 188 147 135 116 102 124 128 120 115 100 85 98
2 13 26 3 -16 24 -11 -13 6 -44 86 165 222 155 155 172 149 -8 -28 133 111 23 -2 126 117 115 103 53 4 14 24 -8 74 -45 -14 -7 19 70 71 105 146 172 186 193 167 129 136 138 118 106 101 98 113 108
5 119 -4 29 -41 5 6 17 9 -49 -6 117 102 100 138 107 19 24 -92 -34 -30 -6 34 160 135 93 107 82 38 -46 -25 -12 -37 -9 23 34 55 66 85 110 185 164 140 132 120 122 125 108 73 57 85 96 113 112
40 39 1 0 -47 22 19 27 -10 -70 -33 -19 -5 -19 -75 -10 -58 -75 -34 -62 -24 40 116 147 121 88 144 52 -6 -13 -39 -37 -20 14 22 32 31 85 108 120 132 103 86 91 79 70 55 59 63 78 80 111 131 157
-26 -3 -19 6 21 2 2 -33 -64 -64 -83 -78 -6 -27 -34 -36 21 -13 6 -6 73 173 170 166 53 4 0 8 -26 -56 -5 3 29 46 44 42 75 82 87 80 73 63 46 45 39 46 57 65 79 94 107 107 118 135
-55 -45 57 63 16 -37 -63 -96 -112 -98 -53 5 -5 -42 2 0 74 14 48 91 145 224 111 48 8 7 41 1 26 76 86 82 68 70 52 44 69 73 94 101 77 56 55 47 52 59 68 77 109 116 121 102 114 121
-59 -73 17 0 -45 -53 59 -51 -87 -103 22 7 13 -23 -7 5 -42 41 81 180 184 177 140 102 98 52 55 19 28 94 124 118 113 68 81 132 125 102 90 89 84 76 71 63 75 87 87 91 85 85 119 132 151 159
-27 -12 -16 -53 -67 16 -29 -79 -47 -27 -17 30 36 55 50 90 122 99 188 277 248 252 238 200 111 79 92 121 58 30 28 39 59 108 170 170 142 120 116 105 104 102 91 74 83 83 71 70 84 108 122 129 149 166
80 113 63 61 -25 -61 -67 -41 -19 -32 32 55 80 102 112 129 169 254 299 276 240 297 273 204 183 110 59 51 24 28 51 78 111 150 171 156 128 115 105 92 96 98 96 97 94 93 97 103 102 111 116 130 155 156
39 79 5 -13 -18 -29 -33 -36 10 13 89 105 165 179 165 194 176 224 224 217 163 201 159 105 80 12 12 38 64 71 66 59 60 67 89 113 101 102 112 111 105 100 100 89 89 83 83 91 108 116 128 128 142 157
107 136 106 136 91 82 58 152 56 96 134 158 184 96 117 163 173 149 166 120 109 100 82 54 40 32 53 48 46 54 52 62 65 82 100 117 109 110 97 82 97 91 77 70 76 87 104 110 115 125 137 148 159 173
74 93 117 134 95 103 114 153 147 111 179 153 176 194 128 101 132 156 72 93 85 88 72 75 76 68 60 50 63 75 71 61 69 78 92 98 95 98 97 81 70 74 88 97 105 118 117 121 142 162 166 176 184 191
51 63 98 97 98 77 159 135 149 137 116 147 106 118 152 103 104 115 96 108 106 82 78 71 64 72 71 65 67 62 59 58 79 89 84 94 105 97 87 88 83 90 101 121 122 128 129 143 164 163 161 173 167 175
39 74 63 88 93 109 136 155 152 92 104 135 148 150 134 108 103 94 66 77 77 87 89 70 59 52 46 45 53 55 50 44 66 85 80 78 106 115 120 114 106 103 111 143 121 124 133 140 148 157 158 166 179 184
34 49 41 59 74 60 63 80 77 64 104 108 96 108 122 99 86 52 61 82 91 89 86 75 65 61 54 38 38 56 62 60 73 88 86 65 59 75 75 83 90 82 61 99 117 110 118 118 130 148 160 177 200 217
32 32 49 60 57 71 80 87 107 102 99 85 83 87 85 79 64 56 79 120 124 121 104 83 64 58 59 66 73 84 78 73 68 73 79 89 88 71 67 71 63 71 68 80 90 104 118 123 140 150 172 175 159 157
24 51 53 80 80 93 85 101 91 83 64 65 85 88 78 62 67 59 63 88 101 103 104 111 127 121 101 75 66 92 120 111 125 126 134 149 132 112 99 102 114 117 102 94 100 116 129 145 156 160 160 167 168 146
47 49 44 66 66 77 76 62 52 61 68 63 59 59 60 64 53 54 58 50 47 63 88 108 141 142 134 108 83 72 82 79 94 86 81 79 73 81 86 98 112 130 148 183 196 180 182 179 180 177 181 181 170 157
60 48 40 39 46 49 49 51 49 59 63 53 51 57 56 54 55 56 51 60 62 70 80 86 85 88 66 70 85 100 87 71 54 57 67 57 48 85 90 107 126 143 166 208 232 239 259 265 252 223 214 189 165 168
46 48 51 53 51 48 42 30 29 32 37 40 38 47 42 40 39 40 46 44 41 41 49 63 60 53 59 68 75 82 73 59 66 72 80 110 146 127 118 118 127 143 156 168 175 182 196 192 182 182 185 173 147 140
46 50 48 58 52 45 49 42 39 41 46 46 43 49 48 42 26 25 45 55 52 57 69 65 64 71 65 68 64 73 78 92 89 86 108 133 146 151 158 160 161 165 177 187 176 161 157 169 152 155 145 133 122 120
42 42 45 50 53 49 49 50 53 44 45 39 30 30 32 22 13 30 47 70 78 81 89 98 102 104 100 97 109 118 128 125 126 138 163 187 199 192 186 175 173 176 188 179 160 153 157 160 153 130 122 120 119 113

GFSWCAN_con_3kmhel_144.txt.gz
Helicity
32 21 19 -6 3 164 135 198 279 337 286 204 174 211 217 163 226 279 270 116 39 204 146 176 158 139 136 109 102 123 127 155 123 110 118 102 103 81 89 67 69 66 99 110 100 132 113 132 111 60 91 109 60 21
31 28 26 -15 18 124 143 194 263 227 171 311 157 144 205 212 209 233 250 100 103 107 79 107 67 104 115 85 114 105 172 94 109 98 104 116 98 111 65 77 49 89 65 101 125 109 129 113 58 82 105 44 30 6
28 25 25 -3 28 70 145 124 216 176 167 128 71 22 25 60 100 133 172 155 146 124 99 88 52 45 63 78 79 99 111 118 99 130 140 141 104 125 81 65 89 105 63 105 64 56 28 10 50 67 72 38 31 81
21 28 30 25 13 66 89 90 72 42 78 101 119 81 70 77 109 136 135 108 172 101 103 74 46 108 44 69 112 136 105 108 96 71 79 117 129 117 134 132 107 80 78 47 39 24 20 22 35 60 44 55 95 86
13 26 20 27 15 18 64 36 32 40 61 85 93 89 86 59 74 120 77 51 118 119 99 84 82 29 51 11 37 32 40 60 57 64 73 106 92 96 98 108 105 65 38 70 60 34 38 12 55 80 104 82 56 83
20 27 21 24 23 37 15 34 35 49 52 60 60 56 43 40 63 126 131 58 28 78 93 46 68 32 62 48 9 -1 36 48 66 64 67 88 89 87 85 77 83 78 58 40 43 28 49 99 95 73 51 63 73 104
24 21 26 27 36 47 46 33 44 60 66 72 66 57 58 66 85 122 106 91 73 127 142 104 55 74 19 47 56 71 75 73 79 66 125 96 82 103 100 -1 71 47 46 24 23 72 62 86 89 85 104 110 131 137
7 19 24 36 38 39 55 65 68 81 76 76 88 81 81 114 147 148 191 105 161 154 167 138 99 99 93 99 81 75 52 86 73 102 100 109 121 142 72 20 7 5 15 21 28 121 44 151 112 121 136 158 148 128
-17 -8 16 20 34 57 59 54 65 76 77 88 88 103 144 177 210 184 126 76 129 139 123 118 103 104 84 51 65 63 62 111 76 130 121 152 143 151 118 39 33 15 13 19 55 118 107 119 104 138 155 134 114 123
-13 -15 -20 -13 33 33 54 61 61 69 81 108 201 279 238 163 126 132 204 168 131 153 174 136 97 118 84 58 41 46 51 76 65 65 76 146 98 82 72 64 50 49 16 96 174 151 97 94 101 135 120 102 102 118
-9 0 1 -4 -12 -6 21 33 40 60 97 200 180 195 153 103 134 124 119 133 124 187 161 128 80 105 90 60 57 58 72 46 75 73 112 91 -34 14 37 75 98 48 -35 156 125 119 92 57 78 121 123 118 109 112
-15 -15 5 2 3 -7 -20 -13 24 150 113 71 165 210 185 103 88 63 120 206 158 184 103 124 113 97 116 118 97 84 71 67 49 83 22 -22 28 -9 -14 -22 -40 -67 77 162 151 141 81 76 97 107 121 117 102 110
16 -21 -18 7 -3 -9 -32 -25 78 103 79 106 215 134 109 101 -29 2 95 175 151 175 109 90 108 157 159 146 147 93 53 17 54 -5 18 61 27 24 18 25 86 102 121 154 158 141 122 123 116 124 135 109 116 97
-28 -13 -18 -23 -10 -16 -26 -2 -55 -1 89 154 99 12 -2 -133 -77 -53 40 129 129 71 25 35 42 43 79 86 110 29 -15 -74 -39 12 38 9 30 9 41 62 79 119 158 172 181 158 145 128 124 100 68 73 94 100
-27 13 -19 -36 -16 -11 14 -9 -29 -28 92 59 30 -16 -79 -19 -31 -12 9 27 55 13 2 -24 -3 23 32 40 26 -13 -63 -84 -52 5 5 25 -9 7 47 83 91 100 121 124 110 107 100 78 68 64 63 83 106 131
-24 5 -49 -25 -23 12 26 -26 -52 8 28 -8 5 3 -8 -83 -50 -53 -51 -39 13 -25 3 40 45 32 3 5 -35 -51 -37 -37 -31 -21 9 -8 -17 39 98 100 96 85 83 86 72 55 45 46 59 82 99 101 108 116
-4 -43 -14 -15 -20 -24 -30 -25 -35 -38 -51 -7 7 13 34 5 -39 -28 -24 -32 -21 48 57 33 -9 -10 -7 -38 -25 -17 7 20 52 39 56 33 31 99 111 87 73 67 64 55 60 66 75 78 91 97 102 95 108 118
-7 -19 -6 -23 -28 -27 -14 -9 -25 -44 -36 26 82 66 -38 -47 -7 -13 -9 -26 12 79 94 25 -2 -5 11 -6 -2 15 30 87 105 80 45 65 109 151 104 98 65 51 59 65 70 74 73 73 71 73 94 108 126 137
-26 -28 -4 -24 -30 -38 -57 -73 -88 12 137 104 92 37 -4 -1 8 -4 -64 3 52 40 69 40 7 31 40 18 14 77 66 31 32 28 63 129 145 119 114 111 89 77 75 71 66 62 62 62 70 81 91 98 111 128
31 20 -7 -50 -54 18 -28 -28 -115 1 3 30 23 26 2 5 30 74 35 135 221 232 76 59 94 85 59 62 59 38 8 28 74 92 111 135 134 119 113 99 85 93 102 94 84 82 88 97 94 93 92 99 116 126
36 -94 -149 -71 -83 -76 -4 -11 4 -9 5 36 34 35 31 90 136 164 205 218 215 214 168 182 177 150 124 30 51 48 59 66 60 51 63 111 108 98 97 98 97 99 96 83 81 86 83 81 89 107 116 118 130 136
-54 -58 -19 -19 -28 -41 -34 -31 1 15 50 57 102 79 99 109 129 123 172 153 162 177 165 141 108 86 59 55 41 43 43 43 46 42 77 100 97 94 87 86 91 94 88 86 91 92 100 102 115 120 132 155 160 170
106 6 -22 -35 -42 -39 -31 -3 48 54 26 73 115 94 90 94 88 111 79 130 116 108 82 68 83 84 61 62 54 53 48 40 39 50 69 85 93 96 105 105 97 91 98 99 96 100 118 140 139 142 159 167 178 190
94 9 -15 -14 -33 -28 -25 -23 -18 40 85 124 59 37 68 59 88 58 25 19 87 87 75 77 63 69 70 62 57 55 54 47 50 64 73 83 96 103 98 95 87 79 75 90 112 134 139 145 151 152 161 165 165 171
49 98 87 108 112 91 99 95 94 78 83 151 164 125 118 137 83 57 48 71 105 91 89 78 71 66 57 57 57 51 45 42 49 69 82 83 97 100 97 90 85 82 91 115 123 133 142 144 141 139 139 140 154 168
68 94 102 98 121 115 110 132 102 76 64 63 75 83 95 93 92 101 86 98 112 104 97 82 75 77 72 58 46 48 59 59 63 73 85 78 70 63 67 70 71 78 83 95 105 118 127 124 124 128 131 141 156 175
66 66 77 93 78 78 88 99 110 113 98 80 84 92 75 70 58 74 106 138 138 120 115 109 94 79 73 74 72 73 78 84 80 79 83 85 79 69 50 50 54 70 77 80 81 85 102 106 108 110 130 149 152 156
63 85 69 77 77 74 69 85 83 81 78 74 95 101 91 95 82 74 81 107 131 135 134 128 119 101 93 88 88 92 104 100 99 97 99 101 97 84 78 74 75 87 88 79 82 86 92 102 116 131 145 166 183 176
67 69 57 70 71 77 84 82 72 78 82 85 83 77 72 70 62 62 71 77 81 89 94 96 114 128 141 120 99 83 78 78 81 76 68 72 70 66 63 75 90 101 112 135 145 128 132 143 154 171 187 190 196 190
66 42 36 33 40 45 51 59 58 69 72 67 64 63 61 60 64 66 60 55 53 62 83 96 108 112 110 94 84 79 70 66 63 56 57 57 60 77 79 92 110 123 133 154 194 229 248 256 263 239 217 203 192 186
41 39 47 48 43 40 45 40 39 39 45 49 46 50 50 49 36 31 34 41 43 49 62 76 85 89 83 70 62 70 70 54 47 49 55 61 81 98 113 123 133 143 150 152 156 168 191 199 189 185 176 185 177 160
36 46 50 58 53 50 46 45 38 36 40 37 38 46 42 42 39 35 46 56 42 34 38 42 45 47 47 56 58 66 77 69 70 70 75 91 117 132 147 156 159 159 166 171 173 175 173 178 168 167 178 173 152 139
5 19 35 42 45 43 49 44 43 44 38 41 37 39 36 32 19 32 41 58 71 87 97 108 110 104 91 86 89 99 107 119 127 123 123 135 145 159 170 175 179 180 186 187 179 165 160 166 177 172 159 145 141 144